Station Historical Data
Daily Summary for July 1, 2017 Units:  English    Metric   Both
« Previous Day
Next Day »
Daily Weekly Monthly Yearly Custom
  High: Low: Average:
Temperature: 83.4 °F 67.5 °F 73.9 °F
Dew Point: 62.0 °F 52.7 °F 56.9 °F
Humidity: 73 % 37 % 56 %
Wind Speed: 14.0 mph 0.0 mph 1.9 mph
Wind Gust: 18.0 mph - -
Wind:- - SSE
Pressure: 29.82 in 29.78 in -
Precipitation: 0.00 in    
Historical Graphs
 
 
Tabular Data for July 1, 2017
Time Temperature Dew Point Pressure Wind Wind Speed Wind Gust Humidity Rainfall Rate (Hourly) solar
00:01 70.3 °F 57.1 °F 29.82 in ESE 7.0 mph 7.0 mph 63 % 0.00 in 0.00 W/m2
00:06 70.2 °F 57.0 °F 29.82 in Calm     63 % 0.00 in 0.00 W/m2
00:11 70.1 °F 56.9 °F 29.82 in Calm   1.0 mph 63 % 0.00 in 0.00 W/m2
00:16 70.0 °F 56.8 °F 29.82 in Calm   5.0 mph 63 % 0.00 in 0.00 W/m2
00:21 70.0 °F 56.8 °F 29.82 in ESE 4.0 mph 7.0 mph 63 % 0.00 in 0.00 W/m2
00:26 69.9 °F 56.8 °F 29.82 in ESE 4.0 mph 6.0 mph 63 % 0.00 in 0.00 W/m2
00:31 69.9 °F 56.8 °F 29.82 in ESE 5.0 mph 7.0 mph 63 % 0.00 in 0.00 W/m2
00:36 69.8 °F 57.1 °F 29.82 in ESE 8.0 mph 8.0 mph 64 % 0.00 in 0.00 W/m2
00:41 69.7 °F 57.0 °F 29.82 in Calm   6.0 mph 64 % 0.00 in 0.00 W/m2
00:46 69.7 °F 57.0 °F 29.82 in ESE 4.0 mph 7.0 mph 64 % 0.00 in 0.00 W/m2
00:51 69.6 °F 56.9 °F 29.82 in ESE 4.0 mph 7.0 mph 64 % 0.00 in 0.00 W/m2
00:56 69.5 °F 56.8 °F 29.82 in ESE 7.0 mph 7.0 mph 64 % 0.00 in 0.00 W/m2
01:01 69.4 °F 56.7 °F 29.82 in ESE 1.0 mph 2.0 mph 64 % 0.00 in 0.00 W/m2
01:06 69.4 °F 56.7 °F 29.82 in ESE 2.0 mph 5.0 mph 64 % 0.00 in 0.00 W/m2
01:11 69.3 °F 56.6 °F 29.82 in ESE 6.0 mph 6.0 mph 64 % 0.00 in 0.00 W/m2
01:16 69.2 °F 56.5 °F 29.82 in East 2.0 mph 11.0 mph 64 % 0.00 in 0.00 W/m2
01:21 69.0 °F 56.8 °F 29.82 in Calm   4.0 mph 65 % 0.00 in 0.00 W/m2
01:26 69.0 °F 56.8 °F 29.82 in ESE 8.0 mph 9.0 mph 65 % 0.00 in 0.00 W/m2
01:31 68.9 °F 56.7 °F 29.82 in ESE 5.0 mph 12.0 mph 65 % 0.00 in 0.00 W/m2
01:36 68.8 °F 56.6 °F 29.82 in East 1.0 mph 8.0 mph 65 % 0.00 in 0.00 W/m2
01:41 68.8 °F 56.6 °F 29.82 in Calm   4.0 mph 65 % 0.00 in 0.00 W/m2
01:46 68.7 °F 56.5 °F 29.82 in ESE 2.0 mph 7.0 mph 65 % 0.00 in 0.00 W/m2
01:51 68.6 °F 56.8 °F 29.82 in ESE 9.0 mph 9.0 mph 66 % 0.00 in 0.00 W/m2
01:56 68.6 °F 56.8 °F 29.82 in East 2.0 mph 9.0 mph 66 % 0.00 in 0.00 W/m2
02:01 68.5 °F 56.7 °F 29.82 in ESE 5.0 mph 8.0 mph 66 % 0.00 in 0.00 W/m2
02:06 68.5 °F 56.7 °F 29.81 in Calm   8.0 mph 66 % 0.00 in 0.00 W/m2
02:11 68.4 °F 56.6 °F 29.81 in ESE 8.0 mph 8.0 mph 66 % 0.00 in 0.00 W/m2
02:16 68.3 °F 56.5 °F 29.81 in ESE 6.0 mph 8.0 mph 66 % 0.00 in 0.00 W/m2
02:21 68.3 °F 56.5 °F 29.81 in ESE 5.0 mph 6.0 mph 66 % 0.00 in 0.00 W/m2
02:26 68.3 °F 56.5 °F 29.81 in ESE 5.0 mph 9.0 mph 66 % 0.00 in 0.00 W/m2
02:31 68.3 °F 56.5 °F 29.81 in East 2.0 mph 6.0 mph 66 % 0.00 in 0.00 W/m2
02:36 68.2 °F 56.4 °F 29.81 in East 14.0 mph 14.0 mph 66 % 0.00 in 0.00 W/m2
02:41 68.2 °F 56.4 °F 29.81 in ESE 2.0 mph 9.0 mph 66 % 0.00 in 0.00 W/m2
02:46 68.1 °F 56.3 °F 29.81 in Calm   11.0 mph 66 % 0.00 in 0.00 W/m2
02:51 68.1 °F 56.3 °F 29.81 in ESE 2.0 mph 8.0 mph 66 % 0.00 in 0.00 W/m2
02:56 68.1 °F 56.3 °F 29.81 in Calm   12.0 mph 66 % 0.00 in 0.00 W/m2
03:01 68.1 °F 56.3 °F 29.81 in ESE 4.0 mph 11.0 mph 66 % 0.00 in 0.00 W/m2
03:06 68.1 °F 56.3 °F 29.81 in East 6.0 mph 9.0 mph 66 % 0.00 in 0.00 W/m2
03:11 68.1 °F 56.3 °F 29.80 in East 5.0 mph 9.0 mph 66 % 0.00 in 0.00 W/m2
03:16 68.1 °F 56.3 °F 29.81 in ESE 9.0 mph 12.0 mph 66 % 0.00 in 0.00 W/m2
03:21 68.1 °F 56.3 °F 29.81 in ESE 6.0 mph 11.0 mph 66 % 0.00 in 0.00 W/m2
03:27 68.1 °F 56.3 °F 29.80 in ESE 9.0 mph 9.0 mph 66 % 0.00 in 0.00 W/m2
03:32 68.1 °F 56.3 °F 29.80 in East 4.0 mph 14.0 mph 66 % 0.00 in 0.00 W/m2
03:37 68.1 °F 56.3 °F 29.80 in ESE 11.0 mph 14.0 mph 66 % 0.00 in 0.00 W/m2
03:42 68.1 °F 56.3 °F 29.80 in ESE 13.0 mph 13.0 mph 66 % 0.00 in 0.00 W/m2
03:47 68.1 °F 56.3 °F 29.80 in ESE 5.0 mph 9.0 mph 66 % 0.00 in 0.00 W/m2
03:52 68.1 °F 56.3 °F 29.80 in ESE 7.0 mph 14.0 mph 66 % 0.00 in 0.00 W/m2
03:57 68.0 °F 56.2 °F 29.80 in ESE 6.0 mph 14.0 mph 66 % 0.00 in 0.00 W/m2
04:02 68.1 °F 56.3 °F 29.80 in East 6.0 mph 13.0 mph 66 % 0.00 in 0.00 W/m2
04:07 68.1 °F 56.3 °F 29.80 in East 5.0 mph 12.0 mph 66 % 0.00 in 0.00 W/m2
04:12 68.1 °F 56.3 °F 29.81 in East 5.0 mph 11.0 mph 66 % 0.00 in 0.00 W/m2
04:17 68.1 °F 56.3 °F 29.81 in ESE 6.0 mph 14.0 mph 66 % 0.00 in 0.00 W/m2
04:22 68.1 °F 55.9 °F 29.81 in East 4.0 mph 13.0 mph 65 % 0.00 in 0.00 W/m2
04:27 68.1 °F 55.9 °F 29.81 in ESE 1.0 mph 12.0 mph 65 % 0.00 in 0.00 W/m2
04:32 68.1 °F 55.9 °F 29.81 in ESE 6.0 mph 13.0 mph 65 % 0.00 in 0.00 W/m2
04:37 68.1 °F 55.9 °F 29.81 in ESE 7.0 mph 12.0 mph 65 % 0.00 in 0.00 W/m2
04:42 68.1 °F 55.9 °F 29.81 in East 2.0 mph 11.0 mph 65 % 0.00 in 0.00 W/m2
04:47 68.1 °F 56.3 °F 29.81 in ESE 8.0 mph 12.0 mph 66 % 0.00 in 0.00 W/m2
04:52 68.0 °F 56.2 °F 29.81 in East 4.0 mph 13.0 mph 66 % 0.00 in 0.00 W/m2
04:57 68.0 °F 56.2 °F 29.81 in East 2.0 mph 16.0 mph 66 % 0.00 in 0.00 W/m2
05:02 67.9 °F 55.7 °F 29.81 in East 13.0 mph 13.0 mph 65 % 0.00 in 0.00 W/m2
05:07 67.9 °F 55.7 °F 29.81 in Calm   16.0 mph 65 % 0.00 in 0.00 W/m2
05:12 67.9 °F 55.7 °F 29.81 in Calm   15.0 mph 65 % 0.00 in 0.00 W/m2
05:17 67.9 °F 55.7 °F 29.81 in Calm   11.0 mph 65 % 0.00 in 0.00 W/m2
05:22 67.9 °F 55.7 °F 29.81 in ESE 9.0 mph 14.0 mph 65 % 0.00 in 0.00 W/m2
05:27 68.0 °F 55.8 °F 29.81 in Calm   7.0 mph 65 % 0.00 in 0.00 W/m2
05:32 68.0 °F 55.4 °F 29.81 in East 6.0 mph 14.0 mph 64 % 0.00 in 0.00 W/m2
05:37 68.0 °F 55.8 °F 29.81 in Calm   11.0 mph 65 % 0.00 in 0.00 W/m2
05:42 68.0 °F 55.8 °F 29.80 in East 5.0 mph 13.0 mph 65 % 0.00 in 5.00 W/m2
05:47 68.0 °F 55.8 °F 29.81 in Calm   13.0 mph 65 % 0.00 in 5.00 W/m2
05:52 68.0 °F 55.4 °F 29.81 in East 11.0 mph 15.0 mph 64 % 0.00 in 7.00 W/m2
05:57 67.9 °F 55.7 °F 29.81 in Calm   15.0 mph 65 % 0.00 in 9.00 W/m2
06:02 67.9 °F 55.7 °F 29.81 in Calm   11.0 mph 65 % 0.00 in 11.00 W/m2
06:08 67.9 °F 55.7 °F 29.81 in East 8.0 mph 13.0 mph 65 % 0.00 in 12.00 W/m2
06:13 67.8 °F 55.6 °F 29.81 in East 4.0 mph 16.0 mph 65 % 0.00 in 14.00 W/m2
06:18 67.7 °F 55.5 °F 29.81 in East 4.0 mph 14.0 mph 65 % 0.00 in 19.00 W/m2
06:23 67.7 °F 55.5 °F 29.81 in ENE 12.0 mph 14.0 mph 65 % 0.00 in 25.00 W/m2
06:28 67.7 °F 55.5 °F 29.81 in ESE 4.0 mph 13.0 mph 65 % 0.00 in 33.00 W/m2
06:33 67.6 °F 55.4 °F 29.81 in East 7.0 mph 9.0 mph 65 % 0.00 in 69.00 W/m2
06:38 67.6 °F 55.8 °F 29.81 in Calm   14.0 mph 66 % 0.00 in 81.00 W/m2
06:43 67.6 °F 55.8 °F 29.81 in East 6.0 mph 18.0 mph 66 % 0.00 in 95.00 W/m2
06:48 67.6 °F 55.8 °F 29.81 in East 2.0 mph 12.0 mph 66 % 0.00 in 95.00 W/m2
06:53 67.6 °F 55.8 °F 29.81 in ESE 5.0 mph 14.0 mph 66 % 0.00 in 95.00 W/m2
06:58 67.6 °F 55.8 °F 29.81 in ESE 11.0 mph 12.0 mph 66 % 0.00 in 100.00 W/m2
07:03 67.6 °F 55.8 °F 29.81 in ESE 6.0 mph 11.0 mph 66 % 0.00 in 146.00 W/m2
07:13 67.6 °F 56.3 °F 29.81 in Calm   12.0 mph 67 % 0.00 in 195.00 W/m2
07:18 67.5 °F 56.2 °F 29.81 in Calm   9.0 mph 67 % 0.00 in 218.00 W/m2
07:23 67.6 °F 56.7 °F 29.81 in Calm   11.0 mph 68 % 0.00 in 239.00 W/m2
07:27 67.6 °F 56.7 °F 29.81 in ESE 2.0 mph 8.0 mph 68 % 0.00 in 253.00 W/m2
07:32 67.6 °F 56.7 °F 29.81 in ESE 5.0 mph 11.0 mph 68 % 0.00 in 272.00 W/m2
07:37 67.6 °F 56.7 °F 29.81 in ESE 4.0 mph 7.0 mph 68 % 0.00 in 287.00 W/m2
07:42 67.6 °F 57.1 °F 29.81 in ESE 6.0 mph 8.0 mph 69 % 0.00 in 302.00 W/m2
07:47 67.7 °F 57.2 °F 29.81 in ESE 5.0 mph 11.0 mph 69 % 0.00 in 320.00 W/m2
07:52 67.8 °F 57.3 °F 29.81 in ESE 6.0 mph 12.0 mph 69 % 0.00 in 339.00 W/m2
07:57 67.9 °F 57.8 °F 29.81 in ESE 5.0 mph 8.0 mph 70 % 0.00 in 353.00 W/m2
08:02 67.9 °F 57.8 °F 29.82 in Calm   2.0 mph 70 % 0.00 in 369.00 W/m2
08:07 68.0 °F 58.3 °F 29.82 in ESE 6.0 mph 6.0 mph 71 % 0.00 in 385.00 W/m2
08:12 68.1 °F 58.3 °F 29.82 in Calm   1.0 mph 71 % 0.00 in 403.00 W/m2
08:17 68.2 °F 58.8 °F 29.82 in Calm     72 % 0.00 in 415.00 W/m2
08:22 68.3 °F 58.9 °F 29.82 in Calm   5.0 mph 72 % 0.00 in 431.00 W/m2
08:27 68.5 °F 59.1 °F 29.82 in ESE 6.0 mph 6.0 mph 72 % 0.00 in 403.00 W/m2
08:32 68.7 °F 59.7 °F 29.82 in Calm   6.0 mph 73 % 0.00 in 461.00 W/m2
08:33 68.8 °F 59.8 °F 29.82 in Calm   6.0 mph 73 % 0.00 in 462.00 W/m2
08:38 68.9 °F 59.9 °F 29.82 in Calm   6.0 mph 73 % 0.00 in 478.00 W/m2
08:40 69.0 °F 59.6 °F 29.82 in ESE 4.0 mph 6.0 mph 72 % 0.00 in 483.00 W/m2
08:45 69.2 °F 60.2 °F 29.82 in Calm   6.0 mph 73 % 0.00 in 499.00 W/m2
08:50 69.5 °F 60.5 °F 29.82 in Calm   4.0 mph 73 % 0.00 in 515.00 W/m2
08:55 69.7 °F 60.7 °F 29.82 in Calm   6.0 mph 73 % 0.00 in 531.00 W/m2
09:00 69.9 °F 60.9 °F 29.82 in Calm   1.0 mph 73 % 0.00 in 545.00 W/m2
09:05 70.1 °F 60.3 °F 29.82 in Calm   6.0 mph 71 % 0.00 in 559.00 W/m2
09:10 70.3 °F 59.7 °F 29.82 in Calm   7.0 mph 69 % 0.00 in 573.00 W/m2
09:15 70.5 °F 59.0 °F 29.82 in Calm   6.0 mph 67 % 0.00 in 587.00 W/m2
09:20 70.8 °F 60.1 °F 29.82 in Calm   5.0 mph 69 % 0.00 in 601.00 W/m2
09:25 71.2 °F 60.1 °F 29.82 in ESE 1.0 mph 7.0 mph 68 % 0.00 in 615.00 W/m2
09:30 71.5 °F 59.6 °F 29.82 in Calm   5.0 mph 66 % 0.00 in 629.00 W/m2
09:35 71.9 °F 61.2 °F 29.82 in Calm     69 % 0.00 in 643.00 W/m2
09:40 72.2 °F 61.1 °F 29.82 in Calm     68 % 0.00 in 657.00 W/m2
09:45 72.5 °F 60.5 °F 29.82 in Calm     66 % 0.00 in 668.00 W/m2
09:46 72.6 °F 60.6 °F 29.82 in Calm     66 % 0.00 in 671.00 W/m2
09:51 73.1 °F 60.7 °F 29.82 in Calm   1.0 mph 65 % 0.00 in 684.00 W/m2
09:56 73.5 °F 58.3 °F 29.82 in Calm     59 % 0.00 in 694.00 W/m2
10:01 74.1 °F 60.7 °F 29.82 in Calm   2.0 mph 63 % 0.00 in 705.00 W/m2
10:06 74.5 °F 61.1 °F 29.81 in Calm   4.0 mph 63 % 0.00 in 717.00 W/m2
10:11 74.8 °F 60.9 °F 29.82 in Calm   3.0 mph 62 % 0.00 in 726.00 W/m2
10:16 75.0 °F 61.1 °F 29.82 in NW 2.0 mph 3.0 mph 62 % 0.00 in 738.00 W/m2
10:21 75.1 °F 61.7 °F 29.82 in Calm   4.0 mph 63 % 0.00 in 751.00 W/m2
10:27 75.3 °F 61.4 °F 29.82 in NW 1.0 mph 2.0 mph 62 % 0.00 in 765.00 W/m2
10:32 75.5 °F 61.1 °F 29.82 in NW 5.0 mph 6.0 mph 61 % 0.00 in 773.00 W/m2
10:37 75.6 °F 60.3 °F 29.82 in NW 3.0 mph 4.0 mph 59 % 0.00 in 784.00 W/m2
10:42 75.8 °F 60.5 °F 29.82 in Calm     59 % 0.00 in 796.00 W/m2
10:47 75.9 °F 61.0 °F 29.82 in Calm   1.0 mph 60 % 0.00 in 805.00 W/m2
10:52 76.2 °F 61.8 °F 29.82 in Calm     61 % 0.00 in 816.00 W/m2
10:57 76.4 °F 62.0 °F 29.82 in Calm   1.0 mph 61 % 0.00 in 824.00 W/m2
11:02 76.6 °F 61.2 °F 29.82 in Calm   2.0 mph 59 % 0.00 in 835.00 W/m2
11:03 76.7 °F 61.3 °F 29.82 in Calm   2.0 mph 59 % 0.00 in 837.00 W/m2
11:08 77.0 °F 61.1 °F 29.82 in Calm     58 % 0.00 in 846.00 W/m2
11:13 77.2 °F 60.3 °F 29.82 in NW 1.0 mph 2.0 mph 56 % 0.00 in 853.00 W/m2
11:18 77.5 °F 59.6 °F 29.82 in Calm     54 % 0.00 in 860.00 W/m2
11:28 78.0 °F 60.0 °F 29.81 in WNW 4.0 mph 5.0 mph 54 % 0.00 in 870.00 W/m2
11:33 78.3 °F 60.8 °F 29.81 in Calm   1.0 mph 55 % 0.00 in 877.00 W/m2
11:36 78.4 °F 60.4 °F 29.81 in Calm   5.0 mph 54 % 0.00 in 879.00 W/m2
11:41 78.6 °F 60.6 °F 29.81 in Calm   5.0 mph 54 % 0.00 in 886.00 W/m2
11:46 78.8 °F 60.2 °F 29.81 in WNW 2.0 mph 2.0 mph 53 % 0.00 in 891.00 W/m2
11:51 78.9 °F 61.4 °F 29.81 in NW 4.0 mph 4.0 mph 55 % 0.00 in 898.00 W/m2
11:56 79.0 °F 61.0 °F 29.81 in Calm     54 % 0.00 in 905.00 W/m2
12:01 79.1 °F 60.5 °F 29.81 in Calm     53 % 0.00 in 909.00 W/m2
12:06 79.3 °F 60.2 °F 29.81 in WNW 5.0 mph 6.0 mph 52 % 0.00 in 916.00 W/m2
12:11 79.5 °F 59.8 °F 29.81 in WNW 5.0 mph 5.0 mph 51 % 0.00 in 919.00 W/m2
12:16 79.7 °F 59.4 °F 29.81 in WNW 1.0 mph 1.0 mph 50 % 0.00 in 926.00 W/m2
12:21 80.0 °F 59.1 °F 29.81 in Calm     49 % 0.00 in 930.00 W/m2
12:26 80.3 °F 60.0 °F 29.81 in WNW 2.0 mph 2.0 mph 50 % 0.00 in 930.00 W/m2
12:31 80.4 °F 58.9 °F 29.82 in Calm     48 % 0.00 in 933.00 W/m2
12:36 80.6 °F 58.5 °F 29.82 in Calm   2.0 mph 47 % 0.00 in 935.00 W/m2
12:41 80.7 °F 59.2 °F 29.81 in WSW 5.0 mph 5.0 mph 48 % 0.00 in 939.00 W/m2
12:46 81.1 °F 57.2 °F 29.81 in Calm   2.0 mph 44 % 0.00 in 939.00 W/m2
12:51 81.3 °F 58.0 °F 29.81 in West 6.0 mph 6.0 mph 45 % 0.00 in 940.00 W/m2
12:56 81.6 °F 59.4 °F 29.82 in Calm   4.0 mph 47 % 0.00 in 939.00 W/m2
13:01 81.6 °F 58.8 °F 29.82 in West 2.0 mph 4.0 mph 46 % 0.00 in 940.00 W/m2
13:06 81.5 °F 58.8 °F 29.81 in Calm     46 % 0.00 in 940.00 W/m2
13:11 81.5 °F 58.8 °F 29.81 in West 5.0 mph 6.0 mph 46 % 0.00 in 939.00 W/m2
13:16 81.7 °F 60.7 °F 29.81 in WNW 1.0 mph 1.0 mph 49 % 0.00 in 940.00 W/m2
13:21 81.7 °F 59.5 °F 29.81 in West 2.0 mph 5.0 mph 47 % 0.00 in 940.00 W/m2
13:26 81.7 °F 60.1 °F 29.81 in Calm   2.0 mph 48 % 0.00 in 944.00 W/m2
13:31 81.8 °F 59.6 °F 29.81 in SW 2.0 mph 7.0 mph 47 % 0.00 in 944.00 W/m2
13:36 82.3 °F 59.5 °F 29.81 in Calm     46 % 0.00 in 939.00 W/m2
13:41 82.4 °F 60.2 °F 29.81 in Calm   6.0 mph 47 % 0.00 in 935.00 W/m2
13:46 82.4 °F 59.6 °F 29.81 in West 1.0 mph 6.0 mph 46 % 0.00 in 937.00 W/m2
13:51 82.4 °F 59.6 °F 29.81 in SW 5.0 mph 7.0 mph 46 % 0.00 in 930.00 W/m2
13:56 82.6 °F 59.8 °F 29.81 in Calm   2.0 mph 46 % 0.00 in 928.00 W/m2
14:01 82.7 °F 59.2 °F 29.81 in Calm   2.0 mph 45 % 0.00 in 925.00 W/m2
14:06 82.7 °F 58.0 °F 29.81 in Calm   3.0 mph 43 % 0.00 in 918.00 W/m2
14:11 82.8 °F 58.7 °F 29.81 in WSW 4.0 mph 9.0 mph 44 % 0.00 in 912.00 W/m2
14:16 82.9 °F 58.1 °F 29.81 in WSW 7.0 mph 7.0 mph 43 % 0.00 in 907.00 W/m2
14:21 83.1 °F 58.3 °F 29.81 in WSW 6.0 mph 6.0 mph 43 % 0.00 in 905.00 W/m2
14:26 83.1 °F 57.0 °F 29.81 in Calm   1.0 mph 41 % 0.00 in 900.00 W/m2
14:31 82.9 °F 56.1 °F 29.81 in WSW 5.0 mph 8.0 mph 40 % 0.00 in 893.00 W/m2
14:36 83.0 °F 57.6 °F 29.81 in Calm   4.0 mph 42 % 0.00 in 889.00 W/m2
14:41 83.3 °F 55.8 °F 29.81 in West 1.0 mph 4.0 mph 39 % 0.00 in 881.00 W/m2
14:46 83.4 °F 57.3 °F 29.81 in Calm   5.0 mph 41 % 0.00 in 870.00 W/m2
14:51 83.4 °F 57.9 °F 29.81 in West 5.0 mph 6.0 mph 42 % 0.00 in 867.00 W/m2
14:56 83.3 °F 55.8 °F 29.81 in Calm   6.0 mph 39 % 0.00 in 861.00 W/m2
15:01 83.2 °F 54.2 °F 29.81 in West 4.0 mph 4.0 mph 37 % 0.00 in 853.00 W/m2
15:06 83.1 °F 55.6 °F 29.81 in Calm     39 % 0.00 in 844.00 W/m2
15:11 83.0 °F 55.5 °F 29.81 in Calm   6.0 mph 39 % 0.00 in 835.00 W/m2
15:16 82.9 °F 55.4 °F 29.81 in Calm   4.0 mph 39 % 0.00 in 823.00 W/m2
15:21 82.8 °F 56.0 °F 29.80 in Calm   1.0 mph 40 % 0.00 in 814.00 W/m2
15:26 82.8 °F 56.0 °F 29.80 in Calm   1.0 mph 40 % 0.00 in 803.00 W/m2
15:31 82.9 °F 55.4 °F 29.80 in Calm   1.0 mph 39 % 0.00 in 795.00 W/m2
15:36 82.8 °F 56.0 °F 29.80 in Calm   5.0 mph 40 % 0.00 in 788.00 W/m2
15:41 82.6 °F 57.2 °F 29.80 in WSW 6.0 mph 7.0 mph 42 % 0.00 in 777.00 W/m2
15:42 82.6 °F 56.5 °F 29.80 in WSW 1.0 mph 7.0 mph 41 % 0.00 in 768.00 W/m2
15:47 82.5 °F 55.8 °F 29.80 in Calm   6.0 mph 40 % 0.00 in 758.00 W/m2
15:52 82.5 °F 55.1 °F 29.79 in Calm     39 % 0.00 in 749.00 W/m2
15:57 82.5 °F 55.8 °F 29.79 in West 2.0 mph 9.0 mph 40 % 0.00 in 738.00 W/m2
16:02 82.6 °F 54.5 °F 29.79 in Calm   6.0 mph 38 % 0.00 in 726.00 W/m2
16:07 82.5 °F 55.1 °F 29.79 in Calm   1.0 mph 39 % 0.00 in 712.00 W/m2
16:12 82.5 °F 55.1 °F 29.79 in Calm   1.0 mph 39 % 0.00 in 698.00 W/m2
16:18 82.2 °F 54.1 °F 29.79 in WNW 1.0 mph 5.0 mph 38 % 0.00 in 689.00 W/m2
16:20 82.0 °F 54.6 °F 29.79 in Calm   5.0 mph 39 % 0.00 in 687.00 W/m2
16:25 81.8 °F 55.1 °F 29.79 in West 4.0 mph 9.0 mph 40 % 0.00 in 671.00 W/m2
16:30 81.8 °F 53.7 °F 29.79 in Calm   7.0 mph 38 % 0.00 in 663.00 W/m2
16:35 81.8 °F 53.0 °F 29.79 in Calm   7.0 mph 37 % 0.00 in 643.00 W/m2
16:40 82.0 °F 53.9 °F 29.79 in SW 1.0 mph 8.0 mph 38 % 0.00 in 626.00 W/m2
16:45 82.0 °F 53.9 °F 29.79 in Calm   4.0 mph 38 % 0.00 in 617.00 W/m2
16:50 82.1 °F 54.0 °F 29.79 in Calm   4.0 mph 38 % 0.00 in 599.00 W/m2
16:56 82.1 °F 54.0 °F 29.79 in Calm   1.0 mph 38 % 0.00 in 585.00 W/m2
17:01 82.2 °F 55.5 °F 29.79 in Calm   4.0 mph 40 % 0.00 in 571.00 W/m2
17:06 82.2 °F 54.8 °F 29.79 in Calm   7.0 mph 39 % 0.00 in 557.00 W/m2
17:11 82.2 °F 54.8 °F 29.79 in Calm   1.0 mph 39 % 0.00 in 541.00 W/m2
17:16 82.2 °F 53.4 °F 29.78 in Calm   1.0 mph 37 % 0.00 in 526.00 W/m2
17:21 82.2 °F 54.1 °F 29.78 in Calm   1.0 mph 38 % 0.00 in 513.00 W/m2
17:26 82.1 °F 54.7 °F 29.78 in Calm   1.0 mph 39 % 0.00 in 496.00 W/m2
17:31 82.0 °F 54.6 °F 29.78 in Calm   2.0 mph 39 % 0.00 in 483.00 W/m2
17:36 81.9 °F 53.8 °F 29.78 in Calm   3.0 mph 38 % 0.00 in 464.00 W/m2
17:41 81.8 °F 55.1 °F 29.78 in Calm   3.0 mph 40 % 0.00 in 448.00 W/m2
17:46 81.6 °F 54.3 °F 29.78 in Calm     39 % 0.00 in 432.00 W/m2
17:51 81.5 °F 54.9 °F 29.78 in Calm     40 % 0.00 in 418.00 W/m2
17:55 81.5 °F 54.9 °F 29.78 in Calm   1.0 mph 40 % 0.00 in 404.00 W/m2
18:01 81.4 °F 56.1 °F 29.78 in Calm     42 % 0.00 in 387.00 W/m2
18:06 81.4 °F 55.5 °F 29.78 in Calm     41 % 0.00 in 373.00 W/m2
18:11 81.3 °F 56.0 °F 29.78 in Calm   1.0 mph 42 % 0.00 in 357.00 W/m2
18:16 81.2 °F 56.0 °F 29.78 in Calm     42 % 0.00 in 341.00 W/m2
18:21 81.2 °F 56.0 °F 29.78 in Calm     42 % 0.00 in 323.00 W/m2
18:26 81.1 °F 55.9 °F 29.78 in Calm     42 % 0.00 in 308.00 W/m2
18:31 81.0 °F 55.1 °F 29.78 in Calm     41 % 0.00 in 290.00 W/m2
18:36 80.9 °F 55.7 °F 29.78 in Calm     42 % 0.00 in 278.00 W/m2
18:41 80.7 °F 56.8 °F 29.78 in Calm     44 % 0.00 in 260.00 W/m2
18:46 80.6 °F 56.7 °F 29.78 in Calm     44 % 0.00 in 246.00 W/m2
18:51 80.5 °F 57.2 °F 29.78 in WSW 1.0 mph 1.0 mph 45 % 0.00 in 230.00 W/m2
18:56 80.3 °F 57.0 °F 29.78 in Calm   1.0 mph 45 % 0.00 in 214.00 W/m2
19:01 80.1 °F 57.5 °F 29.78 in Calm     46 % 0.00 in 197.00 W/m2
19:06 79.9 °F 57.9 °F 29.78 in WSW 1.0 mph 1.0 mph 47 % 0.00 in 183.00 W/m2
19:11 79.6 °F 57.0 °F 29.78 in WSW 1.0 mph 1.0 mph 46 % 0.00 in 169.00 W/m2
19:16 79.2 °F 57.8 °F 29.78 in Calm     48 % 0.00 in 149.00 W/m2
19:21 78.9 °F 57.0 °F 29.78 in Calm     47 % 0.00 in 132.00 W/m2
19:26 78.5 °F 57.8 °F 29.78 in Calm   1.0 mph 49 % 0.00 in 113.00 W/m2
19:31 78.2 °F 57.5 °F 29.79 in Calm     49 % 0.00 in 97.00 W/m2
19:36 77.7 °F 57.6 °F 29.79 in Calm     50 % 0.00 in 81.00 W/m2
19:41 77.3 °F 56.7 °F 29.79 in Calm     49 % 0.00 in 65.00 W/m2
19:46 76.9 °F 57.4 °F 29.79 in Calm     51 % 0.00 in 53.00 W/m2
19:51 76.5 °F 57.6 °F 29.79 in Calm     52 % 0.00 in 42.00 W/m2
19:56 76.0 °F 57.1 °F 29.79 in Calm   1.0 mph 52 % 0.00 in 33.00 W/m2
20:01 75.6 °F 56.8 °F 29.79 in Calm     52 % 0.00 in 26.00 W/m2
20:06 75.2 °F 56.9 °F 29.79 in Calm     53 % 0.00 in 19.00 W/m2
20:07 75.1 °F 56.8 °F 29.79 in Calm   1.0 mph 53 % 0.00 in 19.00 W/m2
20:12 74.8 °F 57.1 °F 29.79 in Calm     54 % 0.00 in 16.00 W/m2
20:17 74.3 °F 56.6 °F 29.79 in Calm   1.0 mph 54 % 0.00 in 14.00 W/m2
20:22 73.9 °F 56.7 °F 29.79 in Calm   1.0 mph 55 % 0.00 in 11.00 W/m2
20:27 73.5 °F 56.4 °F 29.80 in Calm     55 % 0.00 in 9.00 W/m2
20:32 73.1 °F 56.0 °F 29.80 in Calm     55 % 0.00 in 7.00 W/m2
20:37 72.8 °F 56.2 °F 29.80 in Calm     56 % 0.00 in 5.00 W/m2
20:42 72.5 °F 55.9 °F 29.80 in Calm   1.0 mph 56 % 0.00 in 0.00 W/m2
20:47 72.2 °F 55.7 °F 29.80 in Calm     56 % 0.00 in 0.00 W/m2
20:52 71.9 °F 55.4 °F 29.80 in Calm   1.0 mph 56 % 0.00 in 0.00 W/m2
20:57 71.7 °F 55.2 °F 29.80 in Calm     56 % 0.00 in 0.00 W/m2
21:03 71.5 °F 55.5 °F 29.80 in Calm     57 % 0.00 in 0.00 W/m2
21:08 71.2 °F 55.2 °F 29.80 in Calm     57 % 0.00 in 0.00 W/m2
21:13 71.1 °F 55.1 °F 29.80 in Calm     57 % 0.00 in 0.00 W/m2
21:18 71.0 °F 55.0 °F 29.80 in Calm     57 % 0.00 in 0.00 W/m2
21:23 70.9 °F 54.9 °F 29.80 in Calm     57 % 0.00 in 0.00 W/m2
21:28 70.7 °F 54.7 °F 29.80 in Calm     57 % 0.00 in 0.00 W/m2
21:33 70.5 °F 54.5 °F 29.81 in Calm     57 % 0.00 in 0.00 W/m2
21:38 70.4 °F 54.5 °F 29.81 in Calm     57 % 0.00 in 0.00 W/m2
21:43 70.2 °F 54.3 °F 29.81 in Calm     57 % 0.00 in 0.00 W/m2
21:48 70.0 °F 54.1 °F 29.81 in Calm     57 % 0.00 in 0.00 W/m2
21:53 69.9 °F 53.5 °F 29.81 in Calm     56 % 0.00 in 0.00 W/m2
21:58 69.8 °F 53.4 °F 29.81 in Calm     56 % 0.00 in 0.00 W/m2
22:03 69.7 °F 53.3 °F 29.81 in Calm     56 % 0.00 in 0.00 W/m2
22:08 69.6 °F 53.2 °F 29.81 in Calm     56 % 0.00 in 0.00 W/m2
22:13 69.6 °F 53.7 °F 29.81 in Calm     57 % 0.00 in 0.00 W/m2
22:18 69.5 °F 53.1 °F 29.81 in Calm     56 % 0.00 in 0.00 W/m2
22:23 69.4 °F 53.0 °F 29.81 in Calm     56 % 0.00 in 0.00 W/m2
22:28 69.3 °F 53.0 °F 29.81 in Calm     56 % 0.00 in 0.00 W/m2
22:33 69.2 °F 52.8 °F 29.81 in Calm     56 % 0.00 in 0.00 W/m2
22:38 69.2 °F 52.8 °F 29.81 in Calm     56 % 0.00 in 0.00 W/m2
22:43 69.1 °F 53.2 °F 29.81 in Calm     57 % 0.00 in 0.00 W/m2
22:48 69.0 °F 52.7 °F 29.81 in Calm     56 % 0.00 in 0.00 W/m2
22:53 69.0 °F 53.2 °F 29.81 in Calm     57 % 0.00 in 0.00 W/m2
22:58 68.9 °F 53.1 °F 29.81 in Calm     57 % 0.00 in 0.00 W/m2
23:03 68.9 °F 53.1 °F 29.81 in Calm     57 % 0.00 in 0.00 W/m2
23:13 68.8 °F 53.4 °F 29.81 in Calm     58 % 0.00 in 0.00 W/m2
23:18 68.7 °F 53.3 °F 29.81 in Calm     58 % 0.00 in 0.00 W/m2
23:23 68.8 °F 53.4 °F 29.81 in Calm     58 % 0.00 in 0.00 W/m2
23:28 68.6 °F 53.7 °F 29.81 in Calm     59 % 0.00 in 0.00 W/m2
23:33 68.6 °F 53.7 °F 29.81 in Calm   3.0 mph 59 % 0.00 in 0.00 W/m2
23:38 68.5 °F 53.6 °F 29.81 in Calm   3.0 mph 59 % 0.00 in 0.00 W/m2
23:43 68.5 °F 54.1 °F 29.81 in WSW 3.0 mph 4.0 mph 60 % 0.00 in 0.00 W/m2
23:49 68.4 °F 54.0 °F 29.81 in Calm   4.0 mph 60 % 0.00 in 0.00 W/m2
23:54 68.4 °F 54.4 °F 29.81 in SSE 2.0 mph 7.0 mph 61 % 0.00 in 0.00 W/m2
23:59 68.4 °F 54.4 °F 29.81 in SE 5.0 mph 6.0 mph 61 % 0.00 in 0.00 W/m2
Juneau County Weather
Compliments of Weather Underground - 4.5 mb
 WU-history PHP script courtesy of   Juneau County Weather.
powered by Cumulus v1.9.3 (1059)
Ambient Weather VWS v14.00
Top Contact Website Map Copyright © 2007 - 2018 Foresthillweather.com Never base important decisions on this or any weather information obtained from the Internet